When you browse on this site, cookies collect data to enhance your experience and personalize the content and advertising you see.
Visit our Privacy Policy to learn more. By continuing to use the site, you agree to this use of cookies and data.
  • In Latvia
  • List of Countries
  • For 7 days
  • Water Temperature
  • Weather Map
  • Weather Widgets
  • user-avatar
    Login

    Hourly Weather Mafeteng

    Today, 23 September, Monday

    Time Temperature Precipitation Wind Pressure Humidity
    00:00 +3°C° 0 mm 3 mps 625 mmHg 84%
    01:00 +3°C° 0 mm 3 mps 625 mmHg 85%
    02:00 +2°C° 0 mm 3 mps 625 mmHg 85%
    03:00 +1°C° 0 mm 3 mps 625 mmHg 86%
    04:00 +1°C° 0 mm 3 mps 625 mmHg 87%
    05:00 +1°C° 0 mm 2 mps 625 mmHg 88%
    06:00 +3°C° 0 mm 2 mps 626 mmHg 75%
    07:00 +5°C° 0 mm 2 mps 626 mmHg 63%
    08:00 +7°C° 0 mm 2 mps 627 mmHg 51%
    09:00 +12°C° 0 mm 2 mps 628 mmHg 41%
    10:00 +15°C° 0 mm 2 mps 629 mmHg 30%
    11:00 +19°C° 0 mm 2 mps 630 mmHg 20%
    12:00 +20°C° 0 mm 2 mps 630 mmHg 18%
    13:00 +21°C° 0 mm 3 mps 630 mmHg 15%
    14:00 +24°C° 0 mm 3 mps 629 mmHg 13%
    15:00 +22°C° 0 mm 4 mps 629 mmHg 14%
    16:00 +22°C° 0 mm 5 mps 629 mmHg 15%
    17:00 +21°C° 0 mm 6 mps 629 mmHg 16%
    18:00 +16°C° 0 mm 5 mps 629 mmHg 24%
    19:00 +13°C° 0 mm 4 mps 628 mmHg 32%
    20:00 +9°C° 0 mm 3 mps 627 mmHg 40%
    21:00 +8°C° 0 mm 2 mps 627 mmHg 46%
    22:00 +6°C° 0 mm 2 mps 627 mmHg 53%
    23:00 +5°C° 0 mm 2 mps 627 mmHg 59%

    Tomorrow, 24 September, Tuesday

    Time Temperature Precipitation Wind Pressure Humidity
    00:00 +5°C° 0 mm 1 mps 627 mmHg 64%
    01:00 +5°C° 0 mm 1 mps 627 mmHg 69%
    02:00 +4°C° 0 mm 1 mps 626 mmHg 74%
    03:00 +4°C° 0 mm 1 mps 626 mmHg 76%
    04:00 +3°C° 0 mm 1 mps 626 mmHg 78%
    05:00 +3°C° 0 mm 1 mps 626 mmHg 79%
    06:00 +5°C° 0 mm 1 mps 628 mmHg 70%
    07:00 +8°C° 0 mm 1 mps 629 mmHg 60%
    08:00 +10°C° 0 mm 1 mps 630 mmHg 50%
    09:00 +12°C° 0 mm 1 mps 630 mmHg 48%
    10:00 +13°C° 0 mm 1 mps 630 mmHg 45%
    11:00 +14°C° 0 mm 1 mps 630 mmHg 43%
    12:00 +16°C° 0 mm 1 mps 630 mmHg 40%
    13:00 +18°C° 0 mm 1 mps 630 mmHg 37%
    14:00 +20°C° 0 mm 1 mps 630 mmHg 34%
    15:00 +19°C° 0 mm 2 mps 631 mmHg 31%
    16:00 +19°C° 0 mm 2 mps 631 mmHg 28%
    17:00 +20°C° 0 mm 3 mps 631 mmHg 25%
    18:00 +17°C° 0 mm 3 mps 631 mmHg 32%
    19:00 +12°C° 0 mm 3 mps 630 mmHg 40%
    20:00 +8°C° 0 mm 4 mps 630 mmHg 48%
    21:00 +8°C° 0 mm 3 mps 630 mmHg 54%
    22:00 +7°C° 0 mm 3 mps 630 mmHg 59%
    23:00 +5°C° 0 mm 3 mps 631 mmHg 65%

    Day after tomorrow, 25 September, Wednesday

    Time Temperature Precipitation Wind Pressure Humidity
    00:00 +4°C° 0 mm 3 mps 630 mmHg 69%
    01:00 +3°C° 0 mm 3 mps 630 mmHg 74%
    02:00 +4°C° 0 mm 2 mps 630 mmHg 78%
    03:00 +3°C° 0 mm 2 mps 630 mmHg 80%
    04:00 +2°C° 0 mm 2 mps 630 mmHg 81%
    05:00 +1°C° 0 mm 2 mps 630 mmHg 83%
    06:00 +4°C° 0 mm 2 mps 631 mmHg 71%
    07:00 +7°C° 0 mm 2 mps 633 mmHg 60%
    08:00 +9°C° 0 mm 2 mps 634 mmHg 48%
    09:00 +13°C° 0 mm 2 mps 634 mmHg 36%
    10:00 +15°C° 0 mm 2 mps 635 mmHg 25%
    11:00 +18°C° 0 mm 2 mps 635 mmHg 13%
    12:00 +19°C° 0 mm 3 mps 635 mmHg 11%
    13:00 +21°C° 0 mm 3 mps 635 mmHg 8%
    14:00 +22°C° 0 mm 3 mps 635 mmHg 5%
    15:00 +22°C° 0 mm 3 mps 635 mmHg 6%
    16:00 +22°C° 0 mm 4 mps 635 mmHg 6%
    17:00 +21°C° 0 mm 5 mps 634 mmHg 6%
    18:00 +17°C° 0 mm 4 mps 633 mmHg 13%
    19:00 +11°C° 0 mm 3 mps 632 mmHg 19%
    20:00 +7°C° 0 mm 2 mps 631 mmHg 26%
    21:00 +6°C° 0 mm 2 mps 631 mmHg 28%
    22:00 +5°C° 0 mm 2 mps 631 mmHg 29%
    23:00 +4°C° 0 mm 2 mps 631 mmHg 31%

    26 September, Thursday

    Time Temperature Precipitation Wind Pressure Humidity
    00:00 +4°C° 0 mm 1 mps 631 mmHg 37%
    01:00 +3°C° 0 mm 1 mps 630 mmHg 44%
    02:00 +1°C° 0 mm 0 mps 630 mmHg 50%
    03:00 +1°C° 0 mm 0 mps 630 mmHg 53%
    04:00 0°C° 0 mm 0 mps 630 mmHg 55%
    05:00 0°C° 0 mm 0 mps 629 mmHg 57%
    06:00 +4°C° 0 mm 0 mps 631 mmHg 43%
    07:00 +8°C° 0 mm 0 mps 633 mmHg 29%
    08:00 +13°C° 0 mm 1 mps 635 mmHg 15%
    09:00 +16°C° 0 mm 2 mps 635 mmHg 14%
    10:00 +18°C° 0 mm 2 mps 635 mmHg 12%
    11:00 +20°C° 0 mm 3 mps 635 mmHg 11%
    12:00 +22°C° 0 mm 3 mps 635 mmHg 10%
    13:00 +24°C° 0 mm 3 mps 634 mmHg 9%
    14:00 +25°C° 0 mm 4 mps 634 mmHg 9%
    15:00 +25°C° 0 mm 4 mps 634 mmHg 9%
    16:00 +25°C° 0 mm 4 mps 633 mmHg 9%
    17:00 +25°C° 0 mm 4 mps 633 mmHg 9%
    18:00 +19°C° 0 mm 3 mps 632 mmHg 17%
    19:00 +15°C° 0 mm 2 mps 630 mmHg 25%
    20:00 +10°C° 0 mm 2 mps 629 mmHg 33%
    21:00 +9°C° 0 mm 1 mps 629 mmHg 40%
    22:00 +8°C° 0 mm 1 mps 628 mmHg 47%
    23:00 +6°C° 0 mm 0 mps 628 mmHg 54%

    27 September, Friday

    Time Temperature Precipitation Wind Pressure Humidity
    00:00 +6°C° 0 mm 0 mps 628 mmHg 52%
    01:00 +7°C° 0 mm 1 mps 628 mmHg 51%
    02:00 +6°C° 0 mm 1 mps 627 mmHg 49%
    03:00 +6°C° 0 mm 1 mps 627 mmHg 50%
    04:00 +5°C° 0 mm 1 mps 627 mmHg 51%
    05:00 +5°C° 0 mm 1 mps 627 mmHg 52%
    06:00 +8°C° 0 mm 1 mps 628 mmHg 39%
    07:00 +12°C° 0 mm 1 mps 630 mmHg 26%
    08:00 +16°C° 0 mm 1 mps 632 mmHg 14%
    09:00 +19°C° 0 mm 1 mps 632 mmHg 12%
    10:00 +20°C° 0 mm 2 mps 632 mmHg 11%
    11:00 +23°C° 0 mm 2 mps 632 mmHg 9%
    12:00 +24°C° 0 mm 3 mps 632 mmHg 9%
    13:00 +25°C° 0 mm 3 mps 631 mmHg 8%
    14:00 +26°C° 0 mm 3 mps 631 mmHg 7%
    15:00 +26°C° 0 mm 3 mps 631 mmHg 7%
    16:00 +26°C° 0 mm 3 mps 630 mmHg 8%
    17:00 +26°C° 0 mm 3 mps 630 mmHg 8%
    18:00 +20°C° 0 mm 3 mps 628 mmHg 20%
    19:00 +16°C° 0 mm 2 mps 627 mmHg 32%
    20:00 +11°C° 0 mm 1 mps 625 mmHg 45%
    21:00 +11°C° 0 mm 1 mps 625 mmHg 47%
    22:00 +10°C° 0 mm 1 mps 624 mmHg 50%
    23:00 +8°C° 0 mm 0 mps 624 mmHg 53%

    28 September, Saturday

    Time Temperature Precipitation Wind Pressure Humidity
    00:00 +7°C° 0 mm 0 mps 623 mmHg 53%
    01:00 +7°C° 0 mm 0 mps 623 mmHg 54%
    02:00 +6°C° 0 mm 0 mps 623 mmHg 55%
    03:00 +6°C° 0 mm 0 mps 622 mmHg 55%
    04:00 +6°C° 0 mm 0 mps 622 mmHg 55%
    05:00 +5°C° 0 mm 0 mps 622 mmHg 55%
    06:00 +10°C° 0 mm 0 mps 624 mmHg 41%
    07:00 +14°C° 0 mm 0 mps 626 mmHg 27%
    08:00 +19°C° 0 mm 0 mps 628 mmHg 12%
    09:00 +22°C° 0 mm 1 mps 628 mmHg 11%
    10:00 +24°C° 0 mm 2 mps 628 mmHg 10%
    11:00 +26°C° 0 mm 3 mps 629 mmHg 10%
    12:00 +27°C° 0 mm 2 mps 628 mmHg 9%
    13:00 +28°C° 0 mm 2 mps 627 mmHg 9%
    14:00 +28°C° 0 mm 2 mps 627 mmHg 8%
    15:00 +28°C° 0 mm 3 mps 626 mmHg 8%
    16:00 +28°C° 0 mm 3 mps 626 mmHg 8%
    17:00 +27°C° 0 mm 3 mps 626 mmHg 8%
    18:00 +24°C° 0 mm 3 mps 624 mmHg 12%
    19:00 +19°C° 0 mm 2 mps 623 mmHg 15%
    20:00 +15°C° 0 mm 2 mps 622 mmHg 19%
    21:00 +15°C° 0 mm 2 mps 622 mmHg 17%
    22:00 +14°C° 0 mm 2 mps 622 mmHg 15%
    23:00 +14°C° 0 mm 2 mps 622 mmHg 13%
    Show more